| time (UTC) | temp F | wind direction | speed MPH | gust MPH | rain 1hr in | rain 24hr in | rain mn in | humidity % | barometer mb |
| 20260904195517 | 94 | 203 | 3.0 | 8.0 | 0.00 | 0.00 | 0.00 | 62 | 1013.5 |
| 20260904194517 | 94 | 225 | 3.0 | 7.0 | 0.00 | 0.00 | 0.00 | 61 | 1013.5 |
| 20260904193517 | 93 | 135 | 3.0 | 7.0 | 0.00 | 0.00 | 0.00 | 62 | 1013.6 |
| 20260904192517 | 93 | 158 | 2.0 | 6.0 | 0.00 | 0.00 | 0.00 | 63 | 1013.6 |
| 20260904191517 | 93 | 158 | 3.0 | 7.0 | 0.00 | 0.00 | 0.00 | 63 | 1013.7 |
| 20260904190517 | 93 | 158 | 3.0 | 8.0 | 0.00 | 0.00 | 0.00 | 64 | 1013.8 |
| 20260904185517 | 93 | 203 | 3.0 | 8.0 | 0.00 | 0.00 | 0.00 | 64 | 1013.9 |
| 20260904184517 | 93 | 203 | 3.0 | 5.0 | 0.00 | 0.00 | 0.00 | 64 | 1013.9 |
| 20260904183517 | 93 | 158 | 3.0 | 8.0 | 0.00 | 0.00 | 0.00 | 62 | 1014.0 |
| 20260904182517 | 92 | 203 | 2.0 | 6.0 | 0.00 | 0.00 | 0.00 | 65 | 1014.0 |
| 20260904181517 | 92 | 158 | 3.0 | 7.0 | 0.00 | 0.00 | 0.00 | 65 | 1014.1 |
| 20260904180517 | 92 | 270 | 3.0 | 6.0 | 0.00 | 0.00 | 0.00 | 64 | 1014.2 |
| 20260904175517 | 91 | 203 | 3.0 | 7.0 | 0.00 | 0.00 | 0.00 | 65 | 1014.1 |
| 20260904174517 | 91 | 158 | 2.0 | 5.0 | 0.00 | 0.00 | 0.00 | 66 | 1014.2 |
| 20260904173515 | 91 | 270 | 3.0 | 5.0 | 0.00 | 0.00 | 0.00 | 66 | 1014.1 |
| 20260904172517 | 90 | 270 | 2.0 | 5.0 | 0.00 | 0.00 | 0.00 | 66 | 1014.1 |
| 20260904171517 | 90 | 158 | 1.0 | 3.0 | 0.00 | 0.00 | 0.00 | 67 | 1014.1 |
| 20260904170517 | 89 | 158 | 2.0 | 5.0 | 0.00 | 0.00 | 0.00 | 68 | 1014.1 |
| 20260904165537 | 89 | 158 | 3.0 | 6.0 | 0.00 | 0.00 | 0.00 | 69 | 1013.9 |
| 20260904164517 | 88 | 203 | 2.0 | 6.0 | 0.00 | 0.00 | 0.00 | 68 | 1014.0 |
| 20260904163517 | 88 | 225 | 3.0 | 5.0 | 0.00 | 0.00 | 0.00 | 71 | 1014.1 |
| 20260904162517 | 87 | 158 | 2.0 | 7.0 | 0.00 | 0.01 | 0.00 | 71 | 1014.0 |
| 20260904161537 | 87 | 270 | 3.0 | 6.0 | 0.00 | 0.01 | 0.00 | 70 | 1014.0 |
| 20260904160537 | 86 | 225 | 3.0 | 5.0 | 0.00 | 0.01 | 0.00 | 73 | 1014.1 |
| 20260904155537 | 86 | 248 | 3.0 | 6.0 | 0.00 | 0.01 | 0.00 | 74 | 1014.0 |
| 20260904154517 | 85 | 203 | 2.0 | 6.0 | 0.00 | 0.01 | 0.00 | 74 | 1014.1 |
| 20260904153517 | 84 | 225 | 2.0 | 5.0 | 0.00 | 0.01 | 0.00 | 76 | 1014.0 |
| 20260904152517 | 84 | 158 | 2.0 | 5.0 | 0.00 | 0.01 | 0.00 | 76 | 1014.0 |
| 20260904151517 | 83 | 158 | 3.0 | 7.0 | 0.00 | 0.01 | 0.00 | 76 | 1013.9 |
| 20260904150517 | 83 | 158 | 2.0 | 4.0 | 0.00 | 0.01 | 0.00 | 76 | 1014.0 |
| 20260904145517 | 83 | 203 | 3.0 | 7.0 | 0.00 | 0.01 | 0.00 | 77 | 1014.0 |
| 20260904144517 | 82 | 158 | 3.0 | 8.0 | 0.00 | 0.01 | 0.00 | 77 | 1014.0 |
| 20260904143517 | 82 | 158 | 3.0 | 6.0 | 0.00 | 0.01 | 0.00 | 77 | 1014.1 |
| 20260904142517 | 82 | 158 | 2.0 | 5.0 | 0.00 | 0.01 | 0.00 | 79 | 1014.0 |
| 20260904141517 | 81 | 158 | 2.0 | 5.0 | 0.00 | 0.01 | 0.00 | 79 | 1014.0 |
| 20260904140517 | 81 | 158 | 2.0 | 5.0 | 0.00 | 0.01 | 0.00 | 79 | 1014.0 |
| 20260904135517 | 81 | 158 | 3.0 | 6.0 | 0.00 | 0.01 | 0.00 | 79 | 1013.8 |
| 20260904134517 | 80 | 158 | 2.0 | 5.0 | 0.00 | 0.01 | 0.00 | 80 | 1013.7 |
| 20260904133517 | 80 | 158 | 2.0 | 4.0 | 0.00 | 0.01 | 0.00 | 80 | 1013.7 |
| 20260904132516 | 79 | 158 | 2.0 | 4.0 | 0.00 | 0.01 | 0.00 | 82 | 1013.8 |
| 20260904131517 | 78 | 158 | 3.0 | 6.0 | 0.00 | 0.01 | 0.00 | 83 | 1013.6 |
| 20260904130517 | 77 | 158 | 1.0 | 3.0 | 0.00 | 0.01 | 0.00 | 85 | 1013.6 |
| 20260904125517 | 76 | 158 | 1.0 | 3.0 | 0.00 | 0.01 | 0.00 | 86 | 1013.4 |
| 20260904124516 | 76 | 158 | 1.0 | 3.0 | 0.00 | 0.01 | 0.00 | 86 | 1013.3 |
| 20260904123516 | 76 | 158 | 1.0 | 2.0 | 0.00 | 0.01 | 0.00 | 86 | 1013.4 |
| 20260904122517 | 76 | 0.0 | 1.0 | 0.00 | 0.01 | 0.00 | 86 | 1013.2 | |
| 20260904121516 | 76 | 0.0 | 0.0 | 0.00 | 0.01 | 0.00 | 85 | 1013.2 | |
| 20260904120516 | 76 | 0.0 | 0.0 | 0.00 | 0.01 | 0.00 | 84 | 1013.2 | |
| 20260904115517 | 77 | 0.0 | 0.0 | 0.00 | 0.01 | 0.00 | 83 | 1013.1 | |
| 20260904114556 | 77 | 0.0 | 0.0 | 0.00 | 0.01 | 0.00 | 82 | 1013.0 | |
| 20260904113516 | 78 | 0.0 | 2.0 | 0.00 | 0.01 | 0.00 | 82 | 1013.0 | |
| 20260904112516 | 78 | 158 | 1.0 | 3.0 | 0.00 | 0.01 | 0.00 | 82 | 1013.0 |
| 20260904111537 | 77 | 0.0 | 2.0 | 0.00 | 0.01 | 0.00 | 82 | 1012.9 | |
| 20260904110536 | 77 | 0.0 | 1.0 | 0.00 | 0.01 | 0.00 | 82 | 1012.8 | |
| 20260904105517 | 78 | 0.0 | 0.0 | 0.00 | 0.01 | 0.00 | 81 | 1012.9 | |
| 20260904104536 | 78 | 0.0 | 0.0 | 0.00 | 0.01 | 0.00 | 80 | 1012.8 | |
| 20260904103516 | 79 | 0.0 | 0.0 | 0.00 | 0.01 | 0.00 | 79 | 1012.9 | |
| 20260904102556 | 79 | 158 | 1.0 | 2.0 | 0.00 | 0.01 | 0.00 | 79 | 1012.9 |
| 20260904101516 | 79 | 158 | 1.0 | 3.0 | 0.00 | 0.01 | 0.00 | 78 | 1012.9 |
| 20260904100516 | 79 | 158 | 1.0 | 2.0 | 0.00 | 0.01 | 0.00 | 78 | 1012.8 |
| 20260904095516 | 79 | 158 | 1.0 | 4.0 | 0.00 | 0.01 | 0.00 | 78 | 1012.8 |
| 20260904094537 | 80 | 180 | 1.0 | 4.0 | 0.00 | 0.01 | 0.00 | 77 | 1012.6 |
| 20260904093516 | 80 | 158 | 2.0 | 5.0 | 0.00 | 0.01 | 0.00 | 76 | 1012.6 |
| 20260904092516 | 80 | 158 | 2.0 | 7.0 | 0.00 | 0.01 | 0.00 | 76 | 1012.5 |
| 20260904091516 | 80 | 180 | 2.0 | 5.0 | 0.00 | 0.01 | 0.00 | 76 | 1012.4 |
| 20260904090536 | 80 | 180 | 2.0 | 5.0 | 0.00 | 0.01 | 0.00 | 76 | 1012.5 |
| 20260904085516 | 80 | 203 | 2.0 | 6.0 | 0.00 | 0.01 | 0.00 | 77 | 1012.4 |
| 20260904084516 | 79 | 180 | 2.0 | 7.0 | 0.00 | 0.01 | 0.00 | 77 | 1012.4 |
| 20260904083516 | 79 | 180 | 2.0 | 5.0 | 0.00 | 0.01 | 0.00 | 76 | 1012.3 |
| 20260904082516 | 80 | 180 | 2.0 | 7.0 | 0.00 | 0.01 | 0.00 | 76 | 1012.3 |
| 20260904081516 | 80 | 158 | 2.0 | 7.0 | 0.00 | 0.01 | 0.00 | 75 | 1012.3 |
| 20260904080516 | 80 | 158 | 2.0 | 4.0 | 0.00 | 0.01 | 0.00 | 75 | 1012.4 |
| 20260904075516 | 80 | 158 | 2.0 | 4.0 | 0.00 | 0.01 | 0.00 | 74 | 1012.4 |
| 20260904074516 | 80 | 180 | 3.0 | 7.0 | 0.00 | 0.01 | 0.00 | 74 | 1012.4 |
| 20260904073516 | 81 | 158 | 3.0 | 7.0 | 0.00 | 0.01 | 0.00 | 73 | 1012.4 |
| 20260904072516 | 81 | 180 | 3.0 | 7.0 | 0.00 | 0.01 | 0.00 | 73 | 1012.4 |
| 20260904071516 | 81 | 158 | 3.0 | 7.0 | 0.00 | 0.01 | 0.00 | 72 | 1012.4 |
| 20260904070517 | 82 | 158 | 3.0 | 7.0 | 0.00 | 0.01 | 0.00 | 71 | 1012.3 |
| 20260904065536 | 82 | 203 | 3.0 | 8.0 | 0.00 | 0.01 | 0.00 | 70 | 1012.3 |
| 20260904064516 | 82 | 203 | 3.0 | 5.0 | 0.00 | 0.01 | 0.00 | 70 | 1012.4 |
| 20260904063516 | 82 | 180 | 2.0 | 6.0 | 0.00 | 0.01 | 0.00 | 70 | 1012.2 |
| 20260904062516 | 82 | 203 | 2.0 | 4.0 | 0.00 | 0.01 | 0.00 | 70 | 1012.3 |
| 20260904061516 | 83 | 203 | 2.0 | 4.0 | 0.00 | 0.01 | 0.00 | 69 | 1012.3 |
| 20260904060516 | 83 | 203 | 2.0 | 11.0 | 0.00 | 0.01 | 0.00 | 68 | 1012.0 |
| 20260904055536 | 84 | 180 | 2.0 | 8.0 | 0.00 | 0.01 | 0.00 | 68 | 1011.8 |
| 20260904054516 | 84 | 158 | 4.0 | 10.0 | 0.00 | 0.01 | 0.00 | 67 | 1011.9 |
| 20260904053516 | 84 | 158 | 3.0 | 9.0 | 0.00 | 0.01 | 0.00 | 67 | 1011.7 |
| 20260904052536 | 84 | 158 | 4.0 | 8.0 | 0.00 | 0.01 | 0.00 | 67 | 1011.6 |
| 20260904051516 | 83 | 158 | 3.0 | 8.0 | 0.00 | 0.01 | 0.00 | 69 | 1011.4 |
| 20260904050516 | 82 | 158 | 2.0 | 5.0 | 0.00 | 0.01 | 0.00 | 72 | 1011.5 |
| 20260904045516 | 81 | 158 | 1.0 | 3.0 | 0.00 | 0.01 | 0.01 | 75 | 1011.4 |
| 20260904044516 | 81 | 135 | 1.0 | 2.0 | 0.00 | 0.01 | 0.01 | 76 | 1011.4 |
| 20260904043536 | 81 | 0.0 | 2.0 | 0.00 | 0.01 | 0.01 | 75 | 1011.4 | |
| 20260904042516 | 81 | 0.0 | 1.0 | 0.00 | 0.01 | 0.01 | 75 | 1011.3 | |
| 20260904041516 | 81 | 158 | 1.0 | 2.0 | 0.00 | 0.01 | 0.01 | 75 | 1011.4 |
| 20260904040516 | 82 | 0.0 | 2.0 | 0.00 | 0.01 | 0.01 | 75 | 1011.4 | |
| 20260904035516 | 82 | 158 | 1.0 | 2.0 | 0.00 | 0.01 | 0.01 | 74 | 1011.5 |
| 20260904034517 | 82 | 0.0 | 2.0 | 0.00 | 0.01 | 0.01 | 74 | 1011.5 | |
| 20260904033516 | 83 | 135 | 1.0 | 2.0 | 0.00 | 0.01 | 0.01 | 73 | 1011.4 |
| 20260904032516 | 83 | 158 | 1.0 | 2.0 | 0.00 | 0.01 | 0.01 | 73 | 1011.4 |
| 20260904031516 | 83 | 158 | 1.0 | 2.0 | 0.00 | 0.01 | 0.01 | 73 | 1011.4 |
| 20260904030516 | 83 | 135 | 1.0 | 2.0 | 0.00 | 0.01 | 0.01 | 72 | 1011.3 |
| 20260904025516 | 83 | 135 | 1.0 | 3.0 | 0.00 | 0.01 | 0.01 | 72 | 1011.2 |
| 20260904024516 | 84 | 113 | 1.0 | 2.0 | 0.00 | 0.01 | 0.01 | 72 | 1011.3 |
| 20260904023516 | 84 | 158 | 1.0 | 2.0 | 0.00 | 0.01 | 0.01 | 71 | 1011.3 |
| 20260904022516 | 85 | 113 | 1.0 | 2.0 | 0.00 | 0.01 | 0.01 | 70 | 1011.2 |
| 20260904021516 | 85 | 0.0 | 2.0 | 0.00 | 0.01 | 0.01 | 70 | 1011.1 | |
| 20260904020536 | 86 | 135 | 1.0 | 3.0 | 0.00 | 0.01 | 0.01 | 69 | 1011.1 |
| 20260904015516 | 86 | 90 | 1.0 | 3.0 | 0.00 | 0.01 | 0.01 | 68 | 1011.0 |
| 20260904014516 | 87 | 158 | 1.0 | 2.0 | 0.00 | 0.01 | 0.01 | 67 | 1010.8 |
| 20260904013536 | 87 | 158 | 1.0 | 3.0 | 0.00 | 0.01 | 0.01 | 67 | 1010.7 |
| 20260904012516 | 88 | 113 | 1.0 | 3.0 | 0.00 | 0.01 | 0.01 | 65 | 1010.6 |
| 20260904011516 | 89 | 135 | 1.0 | 3.0 | 0.00 | 0.01 | 0.01 | 64 | 1010.5 |
| 20260904010516 | 89 | 180 | 1.0 | 3.0 | 0.00 | 0.01 | 0.01 | 63 | 1010.5 |
| 20260904005516 | 90 | 158 | 1.0 | 3.0 | 0.00 | 0.01 | 0.01 | 62 | 1010.5 |
| 20260904004516 | 91 | 135 | 1.0 | 3.0 | 0.00 | 0.01 | 0.01 | 61 | 1010.5 |
| 20260904003516 | 91 | 180 | 2.0 | 4.0 | 0.00 | 0.01 | 0.01 | 59 | 1010.5 |
| 20260904002516 | 92 | 158 | 2.0 | 4.0 | 0.00 | 0.01 | 0.01 | 59 | 1010.5 |
| 20260904001516 | 93 | 158 | 1.0 | 4.0 | 0.00 | 0.01 | 0.01 | 58 | 1010.5 |
| 20260904000536 | 93 | 158 | 3.0 | 9.0 | 0.00 | 0.01 | 0.01 | 56 | 1010.4 |
| 20260903235516 | 94 | 158 | 3.0 | 7.0 | 0.00 | 0.01 | 0.01 | 55 | 1010.4 |
| 20260903234516 | 94 | 158 | 3.0 | 8.0 | 0.00 | 0.01 | 0.01 | 55 | 1010.3 |
| 20260903233516 | 94 | 158 | 4.0 | 7.0 | 0.00 | 0.01 | 0.01 | 55 | 1010.2 |
| 20260903232516 | 95 | 158 | 4.0 | 9.0 | 0.00 | 0.01 | 0.01 | 54 | 1010.3 |
| 20260903231516 | 95 | 158 | 4.0 | 8.0 | 0.00 | 0.01 | 0.01 | 54 | 1010.2 |
| 20260903230536 | 95 | 158 | 4.0 | 9.0 | 0.00 | 0.01 | 0.01 | 54 | 1010.2 |
| 20260903225636 | 95 | 158 | 4.0 | 11.0 | 0.00 | 0.01 | 0.01 | 53 | 1010.1 |
| 20260903224516 | 96 | 158 | 4.0 | 9.0 | 0.00 | 0.01 | 0.01 | 54 | 1010.0 |
| 20260903223515 | 96 | 158 | 4.0 | 11.0 | 0.00 | 0.01 | 0.01 | 53 | 1009.9 |
| 20260903222516 | 95 | 135 | 5.0 | 12.0 | 0.00 | 0.01 | 0.01 | 53 | 1009.9 |
| 20260903221516 | 96 | 158 | 6.0 | 16.0 | 0.00 | 0.01 | 0.01 | 53 | 1010.0 |
| 20260903220516 | 96 | 158 | 5.0 | 15.0 | 0.00 | 0.01 | 0.01 | 53 | 1010.0 |
| 20260903215516 | 96 | 158 | 4.0 | 8.0 | 0.00 | 0.01 | 0.01 | 53 | 1010.0 |
| 20260903214516 | 96 | 158 | 5.0 | 14.0 | 0.00 | 0.01 | 0.01 | 53 | 1010.0 |
| 20260903213516 | 96 | 158 | 6.0 | 14.0 | 0.00 | 0.01 | 0.01 | 52 | 1010.0 |
| 20260903212516 | 96 | 158 | 6.0 | 12.0 | 0.00 | 0.01 | 0.01 | 52 | 1010.1 |
| 20260903211515 | 95 | 158 | 5.0 | 11.0 | 0.00 | 0.01 | 0.01 | 53 | 1010.2 |
| 20260903210515 | 95 | 158 | 6.0 | 15.0 | 0.00 | 0.01 | 0.01 | 53 | 1010.4 |
| 20260903205516 | 96 | 158 | 5.0 | 12.0 | 0.00 | 0.01 | 0.01 | 53 | 1010.4 |
| 20260903204516 | 95 | 158 | 4.0 | 9.0 | 0.00 | 0.01 | 0.01 | 54 | 1010.4 |
| 20260903203515 | 96 | 158 | 4.0 | 10.0 | 0.00 | 0.01 | 0.01 | 53 | 1010.6 |
| 20260903202516 | 95 | 158 | 5.0 | 12.0 | 0.00 | 0.01 | 0.01 | 54 | 1010.5 |
| 20260903201515 | 95 | 158 | 6.0 | 12.0 | 0.00 | 0.01 | 0.01 | 54 | 1010.5 |